Location: Unspecified
(0.0000°N, 0.0000°E)
Time: 00:56:51
(UTC+02:00)

ASC 2 Rocket - Visible Passes

Search period start: 25 April 2017 00:00
Search period end: 05 May 2017 00:00
Orbit: 555 x 2346 km, 24.0° (Epoch: 23 April)

Date Brightness Start Highest point End Pass type
(mag) Time Alt. Az. Time Alt. Az. Time Alt. Az.
25 Apr 4.2 07:08:13 11° SW 07:11:40 31° SSE 07:15:33 10° E visible
25 Apr 6.0 21:33:46 10° W 21:47:28 53° SSW 21:53:06 32° SSE visible
25 Apr 7.0 23:43:44 10° WSW 23:47:55 18° SW 23:47:55 18° SW visible
26 Apr 5.1 06:06:21 17° SSE 06:06:21 17° SSE 06:08:33 10° ESE visible
26 Apr 6.0 20:24:51 10° WNW 20:39:20 70° SSW 20:51:04 12° SE visible
26 Apr 6.2 22:33:11 10° W 22:44:47 33° SSW 22:45:54 33° SSW visible
27 Apr 3.3 06:59:20 19° SW 07:02:01 52° SSE 07:06:05 10° ENE visible
27 Apr 6.3 21:23:22 10° W 21:36:48 45° SSW 21:43:51 25° SSE visible
27 Apr 7.0 23:33:49 10° WSW 23:38:41 18° SW 23:38:41 18° SW visible
28 Apr 4.8 05:57:27 24° SE 05:57:27 24° SE 05:59:43 10° E visible
28 Apr 6.2 20:14:22 10° WNW 20:28:29 60° SSW 20:41:12 10° SE visible
28 Apr 6.4 22:23:08 10° WSW 22:34:27 30° SSW 22:36:36 28° S visible
29 Apr 2.8 06:50:23 30° WSW 06:52:23 90° SE 06:56:26 10° ENE visible
29 Apr 6.5 21:13:11 10° W 21:26:11 39° SSW 21:34:29 19° SSE visible
29 Apr 7.0 23:23:54 10° WSW 23:29:18 18° SW 23:29:18 18° SW visible
30 Apr 4.8 05:48:28 28° E 05:48:28 28° E 05:50:34 10° E visible
30 Apr 6.4 20:04:08 10° W 20:17:42 51° SSW 20:30:37 10° SE visible
30 Apr 6.6 22:13:13 10° WSW 22:24:14 27° SSW 22:27:10 25° S visible
01 May 3.2 06:41:21 36° W 06:42:44 53° NNW 06:46:39 10° NE visible
01 May 6.7 21:03:14 10° W 21:15:42 34° SSW 21:24:59 16° SE visible
01 May 7.0 23:13:50 10° SW 23:19:48 19° SSW 23:19:48 19° SSW visible
02 May 5.1 05:39:23 26° ENE 05:39:23 26° ENE 05:41:10 10° ENE visible
02 May 6.7 22:03:22 10° WSW 22:14:07 25° SSW 22:17:36 22° S visible
03 May 4.0 06:32:12 31° NW 06:33:01 34° NNW 06:36:44 10° NE visible
03 May 6.8 20:53:29 10° WSW 21:05:20 30° SSW 21:15:22 13° SE visible
03 May 7.0 23:03:37 10° SW 23:10:11 19° SSW 23:10:11 19° SSW visible
04 May 5.4 05:30:09 22° NE 05:30:09 22° NE 05:31:37 10° NE visible
04 May 5.3 07:27:33 10° NW 07:29:11 12° NNW 07:30:46 10° N visible
04 May 6.7 21:53:32 10° SW 22:04:06 24° S 22:07:56 21° SSE visible
